When you browse on this site, cookies collect data to enhance your experience and personalize the content and advertising you see.
Visit our Privacy Policy to learn more. By continuing to use the site, you agree to this use of cookies and data.
  • Em Portugal
  • Lista de países
  • Para 7 dias
  • Temperatura da água
  • Mapa do tempo
  • Widgets de tempo
  • user-avatar
    Iniciar Sessão

    Previsão horária em Pontypool

    Hoje, 23 Setembro, Segunda-feira

    Tempo Temperatura Precipitação Vento Pressão Humidade
    00:00 +12°C° 0 mm 4 m/s 740 mmHg 94%
    01:00 +12°C° 0 mm 4 m/s 740 mmHg 94%
    02:00 +12°C° 0 mm 4 m/s 740 mmHg 94%
    03:00 +11°C° 0 mm 4 m/s 740 mmHg 94%
    04:00 +11°C° 0 mm 3 m/s 741 mmHg 94%
    05:00 +11°C° 0 mm 3 m/s 741 mmHg 94%
    06:00 +10°C° 0 mm 3 m/s 741 mmHg 94%
    07:00 +11°C° 0 mm 3 m/s 742 mmHg 91%
    08:00 +13°C° 0 mm 4 m/s 742 mmHg 88%
    09:00 +14°C° 0 mm 5 m/s 742 mmHg 84%
    10:00 +15°C° 0.1 mm 5 m/s 742 mmHg 81%
    11:00 +16°C° 0.1 mm 6 m/s 742 mmHg 78%
    12:00 +17°C° 0.1 mm 7 m/s 741 mmHg 74%
    13:00 +16°C° 0.8 mm 7 m/s 741 mmHg 80%
    14:00 +15°C° 0.8 mm 7 m/s 740 mmHg 86%
    15:00 +14°C° 0.8 mm 7 m/s 740 mmHg 92%
    16:00 +14°C° 1.4 mm 7 m/s 740 mmHg 93%
    17:00 +14°C° 1.4 mm 7 m/s 739 mmHg 94%
    18:00 +14°C° 1.4 mm 6 m/s 739 mmHg 96%
    19:00 +15°C° 0.3 mm 6 m/s 739 mmHg 96%
    20:00 +15°C° 0.3 mm 5 m/s 739 mmHg 96%
    21:00 +15°C° 0.3 mm 4 m/s 739 mmHg 96%
    22:00 +15°C° 0.2 mm 4 m/s 739 mmHg 96%
    23:00 +15°C° 0.2 mm 4 m/s 739 mmHg 97%

    Amanhã, 24 Setembro, Terça-feira

    Tempo Temperatura Precipitação Vento Pressão Humidade
    00:00 +15°C° 0.2 mm 4 m/s 738 mmHg 97%
    01:00 +15°C° 0.4 mm 4 m/s 737 mmHg 97%
    02:00 +15°C° 0.4 mm 4 m/s 737 mmHg 97%
    03:00 +15°C° 0.4 mm 4 m/s 736 mmHg 97%
    04:00 +15°C° 2.5 mm 4 m/s 736 mmHg 97%
    05:00 +15°C° 2.5 mm 4 m/s 735 mmHg 97%
    06:00 +15°C° 2.5 mm 4 m/s 734 mmHg 97%
    07:00 +15°C° 2.5 mm 5 m/s 734 mmHg 96%
    08:00 +15°C° 2.5 mm 5 m/s 734 mmHg 95%
    09:00 +15°C° 2.5 mm 5 m/s 734 mmHg 93%
    10:00 +15°C° 0.2 mm 6 m/s 734 mmHg 89%
    11:00 +16°C° 0.2 mm 7 m/s 734 mmHg 84%
    12:00 +16°C° 0.2 mm 8 m/s 735 mmHg 79%
    13:00 +16°C° 0 mm 8 m/s 735 mmHg 78%
    14:00 +16°C° 0 mm 7 m/s 735 mmHg 77%
    15:00 +16°C° 0 mm 7 m/s 735 mmHg 75%
    16:00 +15°C° 0.3 mm 7 m/s 735 mmHg 80%
    17:00 +14°C° 0.3 mm 6 m/s 735 mmHg 85%
    18:00 +13°C° 0.3 mm 6 m/s 735 mmHg 90%
    19:00 +13°C° 0.6 mm 6 m/s 735 mmHg 91%
    20:00 +13°C° 0.6 mm 6 m/s 735 mmHg 93%
    21:00 +12°C° 0.6 mm 7 m/s 734 mmHg 94%
    22:00 +13°C° 0.8 mm 6 m/s 734 mmHg 93%
    23:00 +13°C° 0.8 mm 6 m/s 733 mmHg 93%

    Depois de amanhã, 25 Setembro, Quarta-feira

    Tempo Temperatura Precipitação Vento Pressão Humidade
    00:00 +13°C° 0.8 mm 6 m/s 733 mmHg 92%
    01:00 +13°C° 1 mm 6 m/s 733 mmHg 93%
    02:00 +13°C° 1 mm 6 m/s 733 mmHg 94%
    03:00 +13°C° 1 mm 6 m/s 732 mmHg 95%
    04:00 +14°C° 0.9 mm 6 m/s 732 mmHg 94%
    05:00 +14°C° 0.9 mm 6 m/s 732 mmHg 94%
    06:00 +14°C° 0.9 mm 6 m/s 732 mmHg 93%
    07:00 +14°C° 0.2 mm 6 m/s 733 mmHg 92%
    08:00 +15°C° 0.2 mm 6 m/s 734 mmHg 91%
    09:00 +15°C° 0.2 mm 6 m/s 734 mmHg 89%
    10:00 +15°C° 0.1 mm 6 m/s 735 mmHg 88%
    11:00 +15°C° 0.1 mm 7 m/s 735 mmHg 87%
    12:00 +15°C° 0.1 mm 7 m/s 736 mmHg 86%
    13:00 +16°C° 0 mm 7 m/s 736 mmHg 84%
    14:00 +16°C° 0 mm 7 m/s 736 mmHg 82%
    15:00 +16°C° 0 mm 7 m/s 736 mmHg 80%
    16:00 +16°C° 0 mm 6 m/s 736 mmHg 84%
    17:00 +15°C° 0 mm 5 m/s 736 mmHg 88%
    18:00 +14°C° 0 mm 5 m/s 736 mmHg 93%
    19:00 +14°C° 0.4 mm 5 m/s 736 mmHg 93%
    20:00 +15°C° 0.4 mm 5 m/s 736 mmHg 94%
    21:00 +15°C° 0.4 mm 6 m/s 736 mmHg 95%
    22:00 +15°C° 0.5 mm 7 m/s 736 mmHg 94%
    23:00 +15°C° 0.5 mm 8 m/s 735 mmHg 94%

    26 Setembro, Quinta-feira

    Tempo Temperatura Precipitação Vento Pressão Humidade
    00:00 +16°C° 0.5 mm 9 m/s 735 mmHg 94%
    01:00 +15°C° 1 mm 8 m/s 735 mmHg 94%
    02:00 +15°C° 1 mm 7 m/s 735 mmHg 95%
    03:00 +15°C° 1 mm 7 m/s 735 mmHg 96%
    04:00 +14°C° 0.7 mm 6 m/s 735 mmHg 94%
    05:00 +14°C° 0.7 mm 6 m/s 735 mmHg 92%
    06:00 +13°C° 0.7 mm 6 m/s 735 mmHg 90%
    07:00 +14°C° 0 mm 7 m/s 736 mmHg 87%
    08:00 +14°C° 0 mm 7 m/s 736 mmHg 84%
    09:00 +14°C° 0 mm 7 m/s 736 mmHg 81%
    10:00 +15°C° 0.2 mm 8 m/s 736 mmHg 80%
    11:00 +15°C° 0.2 mm 8 m/s 737 mmHg 78%
    12:00 +15°C° 0.2 mm 9 m/s 737 mmHg 77%
    13:00 +15°C° 0.2 mm 9 m/s 737 mmHg 78%
    14:00 +15°C° 0.2 mm 9 m/s 737 mmHg 79%
    15:00 +15°C° 0.2 mm 9 m/s 737 mmHg 80%
    16:00 +13°C° 0.2 mm 9 m/s 737 mmHg 82%
    17:00 +12°C° 0.2 mm 8 m/s 737 mmHg 84%
    18:00 +12°C° 0.2 mm 7 m/s 737 mmHg 86%
    19:00 +12°C° 0.2 mm 7 m/s 738 mmHg 86%
    20:00 +12°C° 0.2 mm 7 m/s 738 mmHg 86%
    21:00 +12°C° 0.2 mm 7 m/s 738 mmHg 86%
    22:00 +12°C° 0.3 mm 7 m/s 738 mmHg 86%
    23:00 +11°C° 0.3 mm 7 m/s 738 mmHg 86%

    27 Setembro, Sexta-feira

    Tempo Temperatura Precipitação Vento Pressão Humidade
    00:00 +11°C° 0.3 mm 6 m/s 738 mmHg 86%
    01:00 +11°C° 0.3 mm 6 m/s 737 mmHg 87%
    02:00 +11°C° 0.3 mm 6 m/s 737 mmHg 88%
    03:00 +11°C° 0.3 mm 6 m/s 737 mmHg 89%
    04:00 +11°C° 0.3 mm 6 m/s 737 mmHg 88%
    05:00 +11°C° 0.3 mm 6 m/s 737 mmHg 88%
    06:00 +11°C° 0.3 mm 6 m/s 737 mmHg 88%
    07:00 +11°C° 0.3 mm 7 m/s 737 mmHg 86%
    08:00 +12°C° 0.3 mm 8 m/s 737 mmHg 84%
    09:00 +12°C° 0.3 mm 8 m/s 737 mmHg 83%
    10:00 +12°C° 0.3 mm 8 m/s 737 mmHg 83%
    11:00 +12°C° 0.3 mm 9 m/s 737 mmHg 83%
    12:00 +12°C° 0.3 mm 9 m/s 737 mmHg 83%
    13:00 +12°C° 0.2 mm 9 m/s 737 mmHg 82%
    14:00 +12°C° 0.2 mm 10 m/s 736 mmHg 82%
    15:00 +12°C° 0.2 mm 10 m/s 736 mmHg 81%
    16:00 +12°C° 0.7 mm 10 m/s 736 mmHg 84%
    17:00 +12°C° 0.7 mm 10 m/s 736 mmHg 87%
    18:00 +11°C° 0.7 mm 9 m/s 736 mmHg 90%
    19:00 +11°C° 0.6 mm 8 m/s 736 mmHg 90%
    20:00 +11°C° 0.6 mm 7 m/s 737 mmHg 90%
    21:00 +10°C° 0.6 mm 6 m/s 737 mmHg 90%
    22:00 +10°C° 0.3 mm 6 m/s 737 mmHg 90%
    23:00 +10°C° 0.3 mm 5 m/s 737 mmHg 91%

    28 Setembro, Sábado

    Tempo Temperatura Precipitação Vento Pressão Humidade
    00:00 +10°C° 0.3 mm 4 m/s 737 mmHg 92%
    01:00 +10°C° 0.2 mm 4 m/s 737 mmHg 92%
    02:00 +10°C° 0.2 mm 4 m/s 737 mmHg 92%
    03:00 +10°C° 0.2 mm 5 m/s 737 mmHg 93%
    04:00 +10°C° 0.1 mm 4 m/s 738 mmHg 93%
    05:00 +10°C° 0.1 mm 4 m/s 738 mmHg 93%
    06:00 +9°C° 0.1 mm 3 m/s 738 mmHg 94%
    07:00 +10°C° 0.1 mm 4 m/s 738 mmHg 90%
    08:00 +12°C° 0.1 mm 5 m/s 739 mmHg 87%
    09:00 +13°C° 0.1 mm 5 m/s 739 mmHg 83%
    10:00 +13°C° 0.3 mm 6 m/s 739 mmHg 84%
    11:00 +13°C° 0.3 mm 6 m/s 739 mmHg 86%
    12:00 +13°C° 0.3 mm 6 m/s 740 mmHg 87%
    13:00 +12°C° 0.3 mm 7 m/s 739 mmHg 86%
    14:00 +14°C° 0.3 mm 7 m/s 739 mmHg 84%
    15:00 +13°C° 0.3 mm 8 m/s 739 mmHg 83%
    16:00 +12°C° 0.1 mm 7 m/s 739 mmHg 85%
    17:00 +12°C° 0.1 mm 7 m/s 740 mmHg 87%
    18:00 +11°C° 0.1 mm 6 m/s 740 mmHg 89%
    19:00 +11°C° 0.1 mm 6 m/s 740 mmHg 90%
    20:00 +11°C° 0.1 mm 6 m/s 740 mmHg 91%
    21:00 +12°C° 0.1 mm 5 m/s 740 mmHg 93%
    22:00 +12°C° 0.1 mm 5 m/s 740 mmHg 93%
    23:00 +12°C° 0.1 mm 5 m/s 739 mmHg 93%
    Mostrar mais